User: anonymous   Login
Location: Academy at Carrie F Thomas
(32.8490°N, 97.2053°W)
Time: 04:31:22
(UTC+00:00)
Language:

Meteor 1-25 Rocket - Orbit

View from above orbital plane
View from above orbital plane
View from above satellite
View from above satellite

Ground track
Ground track

The orbit data is extracted from the following two-line orbital elements,

1 08846U 76043B   22144.72584698 -.00000101  00000-0 -65542-4 0  9998
2 08846  81.2235 357.7618 0037439 331.6775  28.2359 14.08627301364536
Epoch (UTC): 24 May 2022 17:25:13
Eccentricity: 0.0037439
inclination: 81.2235°
perigee height: 837 km
apogee height: 891 km
right ascension of ascending node: 357.7618°
argument of perigee: 331.6775°
revolutions per day: 14.08627301
mean anomaly at epoch: 28.2359°
orbit number at epoch: 36453

The dashed part of the orbit path shows where the satellite is in the earth's shadow,  

DLR